This is the latest recevied weather packets stored in our database for station/object KC9Q. If no packets are shown the sender has not sent any weather packets the latest 10 day(s).
| Time | Temp. | Humidity | Pressure | Rain* | Wind** | Luminosity | Snow |
|---|---|---|---|---|---|---|---|
| 1778034864 | 11.67° C | 99% | 1007.6 hPa | 0 mm | - | 0 W/m² | - |
| 1778034561 | 11.67° C | 99% | 1007.5 hPa | 0.51 mm | - | 0 W/m² | - |
| 1778034258 | 11.67° C | 99% | 1007.6 hPa | 0.51 mm | - | 0 W/m² | - |
| 1778033956 | 11.67° C | 99% | 1007.3 hPa | 1.78 mm | - | 0 W/m² | - |
| 1778033653 | 11.67° C | 99% | 1007 hPa | 1.78 mm | - | 0 W/m² | - |
| 1778033350 | 11.67° C | 99% | 1007.3 hPa | 0 mm | - | 0 W/m² | - |
| 1778033048 | 11.67° C | 99% | 1007.5 hPa | 0.51 mm | - | 0 W/m² | - |
| 1778032745 | 11.67° C | 99% | 1007.4 hPa | 1.78 mm | - | 0 W/m² | - |
| 1778032442 | 11.67° C | 99% | 1006.8 hPa | 1.27 mm | - | 0 W/m² | - |
| 1778032139 | 11.67° C | 99% | 1006.8 hPa | 0 mm | - | 0 W/m² | - |
| 1778031836 | 11.67° C | 99% | 1006.4 hPa | 0.51 mm | - | 0 W/m² | - |
| 1778031532 | 11.67° C | 99% | 1006.3 hPa | 1.27 mm | - | 0 W/m² | - |
| 1778031230 | 11.67° C | 99% | 1006.4 hPa | 1.27 mm | - | 0 W/m² | - |
| 1778030926 | 12.22° C | 99% | 1006.5 hPa | 1.27 mm | - | 0 W/m² | - |
| 1778030623 | 12.22° C | 99% | 1006.5 hPa | 1.78 mm | - | 0 W/m² | - |
| 1778030320 | 12.22° C | 99% | 1006.1 hPa | 1.27 mm | - | 0 W/m² | - |
| 1778030017 | 12.22° C | 99% | 1006.1 hPa | 1.27 mm | - | 0 W/m² | - |
| 1778029714 | 12.22° C | 99% | 1006 hPa | 0 mm | - | 0 W/m² | - |
| 1778029413 | 12.22° C | 99% | 1006 hPa | 0 mm | - | 0 W/m² | - |
| 1778029109 | 12.22° C | 99% | 1005.9 hPa | 0.51 mm | - | 0 W/m² | - |
| 1778028806 | 12.22° C | 99% | 1005.9 hPa | 0.51 mm | - | 0 W/m² | - |
| 1778028502 | 12.22° C | 99% | 1005.9 hPa | 0 mm | - | 0 W/m² | - |
| 1778028200 | 12.22° C | 99% | 1005.7 hPa | 0 mm | - | 1 W/m² | - |
| 1778027895 | 12.22° C | 99% | 1005.9 hPa | 0.51 mm | - | 1 W/m² | - |
| 1778027592 | 12.22° C | 99% | 1006.1 hPa | 0.51 mm | - | 1 W/m² | - |
* Rain latest hour (hover to see other rain measurements)
** Current wind speed in m/s (hover to see current wind gust speed)